Location: Fort Worth, Tx
(32.7431°N, 97.3695°W)
Time: 13:16:37
(UTC-04:00)

ISS - Visible Passes

Search period start: 15 May 2021 00:00
Search period end: 25 May 2021 00:00
Orbit: 417 x 422 km, 51.6° (Epoch: 15 May)

Date Brightness Start Highest point End Pass type
(mag) Time Alt. Az. Time Alt. Az. Time Alt. Az.
15 May -1.0 05:30:45 10° NNW 05:33:23 21° NE 05:36:02 10° E visible
15 May -3.9 22:10:13 10° SW 22:13:32 73° SE 22:16:53 10° NE visible
15 May -0.3 23:49:11 10° WNW 23:50:41 12° NNW 23:52:11 10° N visible
16 May -0.4 04:43:56 10° N 04:45:46 14° NNE 04:47:35 10° ENE visible
16 May -3.8 06:19:31 10° NW 06:22:51 61° SW 06:26:10 10° SE visible
16 May -0.8 23:00:34 10° W 23:03:02 19° NW 23:05:31 10° NNE visible
17 May -3.5 05:33:42 26° NNW 05:35:25 66° NE 05:38:45 10° SE visible
17 May -1.6 22:12:27 10° WSW 22:15:28 30° NW 22:18:29 10° NNE visible
19 May -0.4 22:16:09 10° WNW 22:17:38 12° NNW 22:19:07 10° N visible
